[[{"header":{"parameterUnit":"m.s-1","parameterCategory":2,"la1":30.2991,"la2":30.254,"lo1":-89.0895,"lo2":-89.0444,"dy":0.0017,"dx":0.0017,"nx":28,"ny":28,"refTime":"2024-06-24T21:00:00:Z","depth":"0","parameterNumber":2,"parameterNumberName":"U-component_of_CURRENTS"},"data":[0,0,0,0,0,0,0,0,0,0,0,0,0,0,0,0,0,0,0,0,0,0,0,0,0,0,0,0,0,0,0,0,0,0,0,0,0,0,0,0,0,0,0,0,0,0,0,0,0,0,0,0,0,0,0,0,0,0,0.1771,0.1772,0,0.1974,0.1976,0.1979,0.2098,0.2098,0.2098,0.2099,0.2445,0.2454,0.2463,0,0,0,0,0,0,0,0,0,0,0,0,0,0.1675,0.1675,0.177,0.1773,0.1775,0.1973,0.1977,0.198,0.2098,0.2098,0.2099,0.2099,0.2442,0.2453,0.2464,0,0,0,0,0,0,0,0,0,0,0,0,0,0.1784,0.1675,0.177,0.1855,0.1865,0.1973,0.1977,0.1981,0.2098,0.2098,0.2099,0.2099,0.2439,0.2452,0.2465,0.2544,0,0,0.2507,0.2513,0,0,0,0,0,0,0,0,0.1777,0.1788,0.1841,0.185,0.186,0.2008,0.207,0.2175,0.2098,0.2013,0.2099,0.2099,0.231,0.2334,0.2375,0.256,0.2575,0.2508,0.2516,0.2522,0.2526,0,0,0,0,0,0,0,0.1769,0.1781,0.1855,0.1843,0.1855,0.1949,0.1963,0.2091,0.2163,0.2021,0.2029,0.2046,0.2317,0.2361,0.2384,0.258,0.2508,0.252,0.2528,0.2533,0.29,0.2901,0,0,0,0,0,0,0.1727,0.1772,0.1848,0.186,0.1815,0.1949,0.1965,0.1963,0.2159,0.2187,0.2045,0.2051,0.2338,0.2368,0.2397,0.256,0.2522,0.2535,0.2543,0.2898,0.29,0.2902,0,0,0,0,0,0,0.1724,0.1731,0.184,0.182,0.184,0.1948,0.1946,0.1967,0.2013,0.2175,0.2207,0.207,0.2339,0.2378,0.2526,0.2572,0.2541,0.2553,0.2896,0.2899,0.2901,0.285,0,0,0,0,0,0,0.172,0.1728,0.1723,0.1816,0.1839,0.1908,0.1946,0.1971,0.2022,0.2031,0.2208,0.2239,0.2342,0.2505,0.2539,0.259,0.2564,0.2894,0.2897,0.29,0.285,0.2851,0.2851,0,0,0,0,0,0.1716,0.1712,0.1721,0.1731,0.1823,0.1908,0.193,0.2012,0.2022,0.2052,0.2172,0.2234,0.2547,0.2518,0.2558,0.2614,0.2893,0.2896,0.29,0.285,0.285,0.2851,0,0,0,0,0,0,0.1684,0.1726,0.1738,0.1749,0.1819,0.1927,0.1962,0.2003,0.2117,0.2129,0.2267,0.2309,0.2461,0.2535,0.2498,0.2724,0.2726,0.2738,0.2674,0.2677,0.2677,0.2654,0.2575,0,0,0,0,0,0.1664,0.166,0.1732,0.1743,0.177,0.1858,0.1902,0.1954,0.2059,0.2107,0.2227,0.2362,0.2507,0.2584,0.2719,0.2843,0.2805,0.29,0.29,0.29,0.2908,0.2896,0.2894,0.2913,0.2913,0.2913,0,0,0.1655,0.1676,0.1677,0.1734,0.1791,0.1855,0.1887,0.195,0.2025,0.2131,0.2271,0.2378,0.2541,0.269,0.2762,0.2758,0.2854,0.2905,0.2904,0.2912,0.2899,0.2897,0.2894,0.2916,0.2915,0.2915,0,0,0.1645,0.1651,0.1653,0.1709,0.1781,0.1846,0.1855,0.196,0.203,0.2162,0.2264,0.2395,0.2595,0.2729,0.2821,0.2904,0.2862,0.2928,0.2919,0.2907,0.2904,0.2901,0.2741,0.2725,0.2923,0.2923,0.2923,0,0.1637,0.1646,0.1676,0.1711,0.1765,0.1835,0.1886,0.1976,0.2121,0.219,0.2203,0.2491,0.2629,0.282,0.2852,0.2913,0.282,0.2901,0.2902,0.2899,0.2898,0.2736,0.2718,0.2921,0.2921,0.2921,0.2921,0,0.1644,0.1663,0.1677,0.1737,0.18,0.1855,0.1968,0.2046,0.212,0.2213,0.2388,0.2549,0.2705,0.2775,0.2854,0.2933,0.2835,0.2899,0.2884,0.2891,0.272,0.2703,0.2918,0.2919,0.2919,0.292,0,0,0.1608,0.1665,0.1674,0.1708,0.1818,0.1873,0.1994,0.213,0.2198,0.2337,0.2426,0.2683,0.2709,0.2813,0.2905,0.292,0.2816,0.2884,0.2884,0.2694,0.2632,0.2458,0.2421,0.2845,0.2845,0.2845,0.2474,0,0.1614,0.1655,0.1702,0.1785,0.1826,0.1932,0.2035,0.2166,0.2272,0.2371,0.2531,0.2656,0.274,0.2782,0.2816,0.2848,0.2785,0.2902,0.2683,0.2674,0.2498,0.2405,0.2346,0.2005,0.2458,0.2455,0.2453,0,0.1619,0.1646,0.1697,0.1798,0.1828,0.1892,0.2041,0.2144,0.2307,0.2375,0.2492,0.2584,0.2682,0.272,0.2703,0.2745,0.2669,0.2659,0.2646,0.2504,0.2474,0.21,0.1957,0.195,0.2426,0.2428,0.243,0,0.1576,0.1658,0.1688,0.1726,0.1846,0.19,0.1981,0.2141,0.2224,0.2345,0.2369,0.2496,0.2521,0.2506,0.249,0.2563,0.2374,0.2483,0.2229,0.2209,0.2135,0.2111,0.1952,0.2405,0.2406,0.2407,0.2408,0,0.1572,0.1607,0.1659,0.1682,0.1743,0.1844,0.1927,0.2028,0.2139,0.22,0.2334,0.2358,0.2465,0.2403,0.2384,0.2194,0.2265,0.2174,0.2118,0.2103,0.2082,0.2058,0.2083,0.2393,0.2396,0.2399,0.2401,0,0.1532,0.1561,0.16,0.1686,0.1715,0.1757,0.1874,0.1932,0.2024,0.208,0.21,0.2205,0.2109,0.2118,0.205,0.2014,0.1817,0.1801,0.1692,0.1633,0.1442,0.1466,0.115,0.1129,0.1461,0.1455,0.145,0,0.1515,0.1518,0.1573,0.1585,0.162,0.1687,0.1737,0.186,0.191,0.198,0.1985,0.1928,0.1892,0.1664,0.1595,0.1408,0.1492,0.1221,0.1429,0.136,0.1349,0.136,0.1373,0.1248,0.1242,0.1236,0.1232,0,0.1492,0.1493,0.1517,0.1525,0.1556,0.16,0.1668,0.1688,0.1801,0.1813,0.1779,0.1742,0.1549,0.1386,0.1149,0.1067,0.1174,0.1102,0.1118,0.1212,0.1132,0.1108,0.1465,0.1185,0.119,0.1193,0.1196,0.1198,0.147,0.1464,0.1469,0.1478,0.1497,0.1504,0.1515,0.156,0.1579,0.1575,0.158,0.146,0.1299,0.1004,0.0876,0.0659,0.0769,0.0688,0.0711,0.0719,0.0752,0.091,0.0549,0.055,0.0551,0.0552,0.0552,0,0.1446,0.1433,0.1431,0.1423,0.1403,0.1441,0.1464,0.1449,0.1409,0.1378,0.1321,0.11,0.0891,0.0724,0.0461,0.0349,0.04,0.0316,0.0416,0.0452,0.0653,0.0711,0.0266,0.0266,0.0266,0.0266,0.0266,0.0266,0.1433,0.1408,0.1392,0.1333,0.132,0.1281,0.1274,0.1235,0.1204,0.1054,0.0916,0.0856,0.0686,0.0421,0.0207,0.0168,0.0209,0.0091,0.0153,0.042,0.0462,0.0503,0.0567,0.0099,0.0099,-0.0014,-0.0015,-0.0015]},{"header":{"parameterUnit":"m.s-1","parameterCategory":2,"la1":30.2991,"la2":30.254,"lo1":-89.0895,"lo2":-89.0444,"dy":0.0017,"dx":0.0017,"nx":28,"ny":28,"refTime":"2024-06-24T21:00:00:Z","depth":"0","parameterNumber":3,"parameterNumberName":"V-component_of_CURRENTS"},"data":[0,0,0,0,0,0,0,0,0,0,0,0,0,0,0,0,0,0,0,0,0,0,0,0,0,0,0,0,0,0,0,0,0,0,0,0,0,0,0,0,0,0,0,0,0,0,0,0,0,0,0,0,0,0,0,0,0,0,0.0255,0.0255,0,0.0254,0.0254,0.0254,0.0231,0.0231,0.023,0.023,0.0122,0.0119,0.0117,0,0,0,0,0,0,0,0,0,0,0,0,0,0.0213,0.0213,0.0255,0.0255,0.0255,0.0254,0.0254,0.0254,0.0231,0.0231,0.023,0.023,0.0122,0.0119,0.0116,0,0,0,0,0,0,0,0,0,0,0,0,0,0.0222,0.0214,0.0255,0.0245,0.0244,0.0254,0.0254,0.0254,0.0231,0.0231,0.023,0.023,0.0123,0.012,0.0116,0.0106,0,0,0.0105,0.0103,0,0,0,0,0,0,0,0,0.0221,0.0223,0.0246,0.0246,0.0245,0.0244,0.02,0.02,0.0232,0.0234,0.023,0.0229,0.0154,0.0148,0.0148,0.0101,0.0096,0.0104,0.0102,0.01,0.0099,0,0,0,0,0,0,0,0.0221,0.0223,0.0253,0.0247,0.0246,0.0233,0.0233,0.02,0.0194,0.0234,0.0233,0.0236,0.0153,0.0152,0.0145,0.0094,0.0104,0.0101,0.0099,0.0097,0.0058,0.0059,0,0,0,0,0,0,0.0227,0.0223,0.0253,0.0253,0.0233,0.0234,0.0235,0.0243,0.0197,0.0191,0.0237,0.0235,0.0159,0.0149,0.0141,0.013,0.01,0.0097,0.0095,0.0057,0.0059,0.006,0,0,0,0,0,0,0.0226,0.023,0.0253,0.0239,0.0241,0.0236,0.0246,0.0244,0.024,0.02,0.0192,0.0235,0.0158,0.0146,0.0102,0.0126,0.0095,0.0092,0.0056,0.0057,0.0059,0.0106,0,0,0,0,0,0,0.0225,0.0229,0.0235,0.0239,0.0242,0.0261,0.0246,0.0244,0.0244,0.0242,0.0196,0.0186,0.0156,0.0107,0.0098,0.012,0.0089,0.0054,0.0056,0.0059,0.0103,0.0109,0.0114,0,0,0,0,0,0.0223,0.0234,0.0235,0.0239,0.0251,0.0262,0.0262,0.0255,0.0245,0.0248,0.0207,0.0187,0.0117,0.0104,0.0093,0.0115,0.0053,0.0056,0.0058,0.01,0.0108,0.0114,0,0,0,0,0,0,0.0215,0.0233,0.0235,0.0249,0.0257,0.0259,0.0262,0.0257,0.0231,0.0222,0.018,0.0167,0.0145,0.0122,0.011,0.0115,0.0091,0.0091,0.0127,0.0133,0.0139,0.0196,0.0086,0,0,0,0,0,0.0219,0.0233,0.0245,0.0257,0.0263,0.0263,0.0265,0.0262,0.0244,0.0234,0.0202,0.0173,0.0151,0.0133,0.0109,0.0094,0.0116,0.011,0.0116,0.0121,0.0163,0.0235,0.0252,0.0069,0.0069,0.0069,0,0,0.0218,0.0231,0.0237,0.0256,0.0261,0.0273,0.0262,0.027,0.0273,0.0223,0.0208,0.0184,0.0151,0.0141,0.0132,0.012,0.0173,0.0124,0.0128,0.0169,0.024,0.0258,0.0275,0.0071,0.007,0.007,0,0,0.0227,0.0237,0.0253,0.0263,0.0278,0.028,0.0284,0.0287,0.0281,0.0264,0.0239,0.0242,0.0184,0.0193,0.0182,0.021,0.02,0.019,0.0262,0.0331,0.0348,0.0363,0.0364,0.0379,0.0194,0.0194,0.0194,0,0.0225,0.025,0.0257,0.0276,0.0289,0.0285,0.0304,0.0298,0.0284,0.0299,0.0264,0.0268,0.0228,0.0261,0.0264,0.0228,0.0238,0.0231,0.0341,0.0357,0.0372,0.037,0.0386,0.0197,0.0197,0.0196,0.0196,0,0.0247,0.0267,0.0277,0.0302,0.0314,0.033,0.0333,0.0339,0.033,0.0343,0.0373,0.0343,0.0364,0.0345,0.0299,0.0386,0.0346,0.0338,0.0326,0.0393,0.0385,0.0401,0.0201,0.02,0.0199,0.0198,0,0,0.0249,0.0287,0.0291,0.0313,0.0333,0.0349,0.0361,0.0395,0.0432,0.0429,0.0495,0.0472,0.0495,0.0489,0.046,0.051,0.0583,0.0465,0.0467,0.0471,0.0689,0.0622,0.0632,0.059,0.0594,0.0597,0.0624,0,0.0267,0.0309,0.0322,0.0361,0.0386,0.0397,0.0418,0.0448,0.0468,0.0525,0.055,0.0586,0.0536,0.0552,0.0602,0.0589,0.0635,0.0574,0.0622,0.0623,0.0562,0.0654,0.0668,0.0692,0.0639,0.0642,0.0643,0,0.0288,0.0317,0.0359,0.0412,0.0425,0.0445,0.051,0.0529,0.0605,0.0628,0.0703,0.0717,0.0784,0.0736,0.0803,0.076,0.0745,0.0736,0.0736,0.0686,0.059,0.0628,0.0723,0.0762,0.0668,0.0666,0.0664,0,0.0298,0.0346,0.0384,0.0399,0.0452,0.0479,0.0506,0.0572,0.0617,0.0712,0.0772,0.0851,0.089,0.0924,0.0876,0.0855,0.0937,0.0905,0.0838,0.0829,0.0863,0.0851,0.102,0.0998,0.0998,0.0998,0.0998,0,0.0319,0.035,0.0393,0.0416,0.0475,0.0502,0.0581,0.0618,0.0709,0.0796,0.0837,0.0918,0.0946,0.0976,0.0939,0.0925,0.0991,0.0889,0.0864,0.0868,0.0857,0.0907,0.0908,0.0999,0.0998,0.0998,0.0998,0,0.0325,0.0351,0.04,0.0458,0.0481,0.0523,0.0612,0.0679,0.0747,0.0866,0.0903,0.0988,0.1015,0.1001,0.1031,0.0994,0.1005,0.096,0.0921,0.0892,0.087,0.087,0.0989,0.1037,0.0928,0.0927,0.0927,0,0.0333,0.0357,0.0424,0.0462,0.049,0.0557,0.0616,0.0691,0.0768,0.0904,0.097,0.1029,0.1074,0.1064,0.101,0.0957,0.0975,0.0935,0.0926,0.0914,0.0897,0.0883,0.0915,0.0962,0.0961,0.0961,0.096,0,0.0349,0.0369,0.041,0.0484,0.0545,0.0622,0.0706,0.0774,0.0878,0.0963,0.1069,0.1112,0.11,0.1068,0.0978,0.0944,0.0979,0.0923,0.0974,0.101,0.0954,0.0969,0.0839,0.0957,0.0957,0.0958,0.0958,0.0958,0.0359,0.0388,0.0442,0.0514,0.0584,0.0678,0.0746,0.084,0.0947,0.108,0.1114,0.1164,0.1129,0.1014,0.0976,0.0938,0.0939,0.0948,0.0963,0.0959,0.0994,0.0813,0.0859,0.0859,0.0859,0.0859,0.0858,0,0.0377,0.0414,0.0475,0.056,0.0632,0.0672,0.0804,0.0874,0.0986,0.1084,0.1153,0.1154,0.1116,0.1062,0.1,0.1,0.1023,0.101,0.1051,0.1096,0.1006,0.0997,0.1002,0.1002,0.1002,0.1002,0.1002,0.1002,0.039,0.0442,0.0472,0.0581,0.0644,0.0743,0.0817,0.0921,0.1002,0.1104,0.1132,0.1157,0.1152,0.1067,0.108,0.1091,0.1166,0.1112,0.1162,0.1135,0.1132,0.113,0.1127,0.1159,0.1159,0.1278,0.1279,0.128]}],[{"header":{"parameterUnit":"m.s-1","parameterCategory":2,"la1":30.2991,"la2":30.254,"lo1":-89.0895,"lo2":-89.0444,"dy":0.0017,"dx":0.0017,"nx":28,"ny":28,"refTime":"2024-06-24T21:00:00:Z","depth":"2","parameterNumber":2,"parameterNumberName":"U-component_of_CURRENTS"},"data":[0,0,0,0,0,0,0,0,0,0,0,0,0,0,0,0,0,0,0,0,0,0,0,0,0,0,0,0,0,0,0,0,0,0,0,0,0,0,0,0,0,0,0,0,0,0,0,0,0,0,0,0,0,0,0,0,0,0,0.1392,0.1393,0,0.1454,0.1454,0.1454,0.1486,0.1487,0.1487,0.1488,0.1587,0.159,0.1592,0,0,0,0,0,0,0,0,0,0,0,0,0,0.1374,0.1373,0.1392,0.1393,0.1394,0.1454,0.1454,0.1455,0.1486,0.1487,0.1487,0.1488,0.1587,0.1589,0.1592,0,0,0,0,0,0,0,0,0,0,0,0,0,0.1399,0.1373,0.1392,0.142,0.1424,0.1453,0.1454,0.1455,0.1486,0.1487,0.1487,0.1488,0.1586,0.1589,0.1592,0.1602,0,0,0.1603,0.1604,0,0,0,0,0,0,0,0,0.1398,0.14,0.1415,0.1418,0.1422,0.1466,0.1485,0.1507,0.1486,0.1458,0.1488,0.1488,0.1552,0.1559,0.1563,0.1606,0.1611,0.1603,0.1605,0.1607,0.1608,0,0,0,0,0,0,0,0.1396,0.1398,0.1413,0.1416,0.1421,0.1455,0.1458,0.1489,0.1499,0.1461,0.1464,0.1477,0.1554,0.1559,0.1566,0.1612,0.1603,0.1606,0.1608,0.161,0.173,0.1731,0,0,0,0,0,0,0.1391,0.1395,0.1411,0.1415,0.1416,0.1455,0.1458,0.1448,0.1498,0.1507,0.1476,0.1478,0.1553,0.1562,0.1569,0.164,0.1607,0.161,0.1612,0.1729,0.173,0.1732,0,0,0,0,0,0,0.139,0.1391,0.1408,0.1411,0.1416,0.1454,0.1443,0.1449,0.1478,0.151,0.1519,0.1502,0.1554,0.1565,0.1614,0.1642,0.1611,0.1615,0.1728,0.1729,0.1731,0.1746,0,0,0,0,0,0,0.1389,0.139,0.1388,0.141,0.1416,0.1447,0.1444,0.145,0.1486,0.1489,0.1535,0.1543,0.1555,0.1609,0.1618,0.1646,0.1617,0.1726,0.1728,0.173,0.1744,0.1748,0.1751,0,0,0,0,0,0.1388,0.1385,0.1387,0.139,0.1409,0.1449,0.1456,0.1482,0.1486,0.1508,0.1532,0.1543,0.1629,0.1613,0.1623,0.1653,0.1725,0.1728,0.173,0.1742,0.1747,0.1751,0,0,0,0,0,0,0.1382,0.1389,0.1392,0.1391,0.1428,0.1456,0.1471,0.1495,0.1529,0.1529,0.1557,0.1568,0.1616,0.1636,0.1617,0.1694,0.1679,0.1684,0.1685,0.169,0.1694,0.1744,0.162,0,0,0,0,0,0.1377,0.1371,0.1399,0.1402,0.1414,0.1445,0.1466,0.1488,0.1519,0.1535,0.1566,0.1598,0.163,0.1662,0.1685,0.1735,0.1715,0.1762,0.1765,0.1768,0.1816,0.1825,0.1834,0.174,0.174,0.174,0,0,0.1376,0.138,0.1378,0.1401,0.1419,0.144,0.1458,0.1492,0.1516,0.154,0.1578,0.1607,0.1643,0.1688,0.1714,0.1715,0.1761,0.1771,0.1774,0.1821,0.1829,0.1838,0.1846,0.1742,0.1741,0.1741,0,0,0.1375,0.1372,0.1369,0.1394,0.1429,0.1448,0.1465,0.1504,0.1527,0.1569,0.1589,0.1661,0.1688,0.1747,0.1772,0.1821,0.177,0.1804,0.188,0.1886,0.1894,0.1902,0.1781,0.1778,0.1819,0.1819,0.1819,0,0.1378,0.1372,0.1383,0.1394,0.1416,0.1453,0.1473,0.1498,0.1554,0.1588,0.1582,0.1689,0.1729,0.182,0.1845,0.1836,0.1774,0.1854,0.1891,0.1898,0.1906,0.1782,0.1778,0.182,0.1819,0.1819,0.1819,0,0.1375,0.138,0.1383,0.1396,0.1425,0.1451,0.1487,0.1524,0.1552,0.1591,0.1681,0.1747,0.1824,0.1843,0.1867,0.1951,0.1859,0.1878,0.1877,0.1916,0.1781,0.1777,0.1821,0.1821,0.182,0.182,0,0,0.1362,0.1377,0.138,0.1388,0.1431,0.1453,0.1493,0.1556,0.1596,0.1663,0.1733,0.1843,0.1898,0.1937,0.198,0.203,0.2005,0.1986,0.1986,0.186,0.1904,0.1736,0.1713,0.201,0.2012,0.2014,0.1748,0,0.1363,0.1371,0.1388,0.1413,0.1423,0.147,0.1513,0.1575,0.1622,0.1691,0.1799,0.1867,0.1918,0.1963,0.2027,0.203,0.2012,0.2069,0.1894,0.1888,0.1732,0.1713,0.165,0.1403,0.1744,0.1743,0.1743,0,0.1357,0.1365,0.138,0.1423,0.1435,0.1462,0.1539,0.1583,0.1687,0.1732,0.1841,0.1888,0.2008,0.2025,0.2049,0.2065,0.1995,0.1978,0.1967,0.1828,0.1719,0.1443,0.1382,0.1736,0.1736,0.1737,0.1737,0,0.1335,0.1363,0.1372,0.1384,0.1438,0.147,0.1514,0.1606,0.1647,0.1759,0.1781,0.1916,0.1951,0.1968,0.1933,0.1979,0.1883,0.1925,0.1682,0.1662,0.1593,0.1566,0.1903,0.1903,0.1904,0.1904,0.1905,0,0.1326,0.1336,0.1361,0.1366,0.1403,0.1455,0.1512,0.1577,0.1668,0.1707,0.1801,0.1826,0.1943,0.1896,0.1888,0.1737,0.1817,0.1689,0.1613,0.158,0.1556,0.1874,0.1874,0.1894,0.1896,0.1898,0.19,0,0.1301,0.1315,0.1324,0.137,0.1387,0.1415,0.1487,0.1527,0.1603,0.1647,0.1672,0.1737,0.1676,0.168,0.1657,0.1614,0.1533,0.1433,0.132,0.1239,0.1304,0.1309,0.1166,0.1159,0.1153,0.1147,0.1143,0,0.1287,0.1286,0.1309,0.1313,0.1332,0.1376,0.1412,0.1501,0.1531,0.157,0.1575,0.1525,0.1481,0.1325,0.1275,0.1138,0.126,0.0954,0.1095,0.1304,0.1244,0.1258,0.127,0.0946,0.0941,0.0936,0.0932,0,0.1266,0.1269,0.1276,0.1277,0.1295,0.1311,0.1356,0.1364,0.1445,0.1445,0.1404,0.1362,0.121,0.1082,0.0889,0.0822,0.1003,0.0849,0.1112,0.1153,0.1079,0.1026,0.1049,0.0891,0.0895,0.0898,0.09,0.0902,0.1252,0.1243,0.1242,0.124,0.1248,0.1234,0.1229,0.1249,0.1249,0.1226,0.1233,0.1116,0.1062,0.0763,0.0641,0.0531,0.0634,0.0628,0.0651,0.0676,0.0709,0.0631,0.0355,0.0356,0.0357,0.0358,0.0359,0,0.1229,0.1216,0.1207,0.1188,0.1163,0.1189,0.1182,0.1153,0.1099,0.1067,0.1014,0.0829,0.0666,0.0584,0.0371,0.0282,0.0367,0.0242,0.0414,0.0451,0.0486,0.0521,0.011,0.0109,0.0109,0.0108,0,0,0.1217,0.119,0.1171,0.1107,0.1092,0.1043,0.1019,0.0965,0.0926,0.0824,0.074,0.0722,0.0634,0.0438,0.0338,0.0214,0.0351,0.017,0.0372,0.0621,0.0657,0.0696,0.0787,0,0,0,0,0]},{"header":{"parameterUnit":"m.s-1","parameterCategory":2,"la1":30.2991,"la2":30.254,"lo1":-89.0895,"lo2":-89.0444,"dy":0.0017,"dx":0.0017,"nx":28,"ny":28,"refTime":"2024-06-24T21:00:00:Z","depth":"2","parameterNumber":3,"parameterNumberName":"V-component_of_CURRENTS"},"data":[0,0,0,0,0,0,0,0,0,0,0,0,0,0,0,0,0,0,0,0,0,0,0,0,0,0,0,0,0,0,0,0,0,0,0,0,0,0,0,0,0,0,0,0,0,0,0,0,0,0,0,0,0,0,0,0,0,0,0.0191,0.0192,0,0.0208,0.0208,0.0208,0.0201,0.02,0.02,0.02,0.0113,0.0111,0.0109,0,0,0,0,0,0,0,0,0,0,0,0,0,0.0156,0.0157,0.0191,0.0192,0.0192,0.0208,0.0208,0.0208,0.0201,0.02,0.02,0.0199,0.0114,0.0111,0.0109,0,0,0,0,0,0,0,0,0,0,0,0,0,0.0172,0.0157,0.0191,0.019,0.0189,0.0208,0.0208,0.0209,0.0201,0.02,0.02,0.0199,0.0114,0.0112,0.0109,0.0105,0,0,0.01,0.0099,0,0,0,0,0,0,0,0,0.0171,0.0174,0.019,0.019,0.019,0.0201,0.0164,0.0169,0.0201,0.0197,0.02,0.0199,0.0133,0.0129,0.0136,0.0101,0.0098,0.01,0.0098,0.0097,0.0096,0,0,0,0,0,0,0,0.017,0.0173,0.0198,0.019,0.019,0.0189,0.019,0.0165,0.0167,0.0198,0.0197,0.0198,0.0132,0.0138,0.0133,0.0096,0.01,0.0098,0.0096,0.0095,0.0077,0.0078,0,0,0,0,0,0,0.0168,0.0172,0.0198,0.0199,0.0178,0.019,0.0192,0.0199,0.017,0.0166,0.0199,0.0198,0.0144,0.0136,0.013,0.0123,0.0097,0.0094,0.0093,0.0076,0.0078,0.0079,0,0,0,0,0,0,0.0167,0.017,0.0197,0.0185,0.0188,0.0191,0.0199,0.0199,0.02,0.0172,0.0165,0.0199,0.0143,0.0134,0.0095,0.0119,0.0093,0.0091,0.0075,0.0076,0.0078,0.0108,0,0,0,0,0,0,0.0166,0.017,0.0175,0.0185,0.0189,0.0208,0.02,0.02,0.0202,0.0201,0.0169,0.0161,0.0142,0.0099,0.0092,0.0114,0.0088,0.0073,0.0075,0.0078,0.0105,0.0111,0.0115,0,0,0,0,0,0.0165,0.0174,0.0176,0.0178,0.0195,0.0209,0.0211,0.021,0.0203,0.0208,0.0175,0.0162,0.011,0.0096,0.0088,0.0111,0.0072,0.0075,0.0077,0.0103,0.011,0.0115,0,0,0,0,0,0,0.0159,0.0174,0.0176,0.0188,0.0198,0.0207,0.0212,0.021,0.0193,0.0186,0.0154,0.0144,0.013,0.0113,0.0099,0.0117,0.0099,0.01,0.0122,0.0127,0.0132,0.0186,0.0086,0,0,0,0,0,0.0161,0.0173,0.0185,0.0195,0.02,0.0206,0.0211,0.0212,0.0199,0.0192,0.017,0.0151,0.0139,0.0123,0.0111,0.01,0.0116,0.0119,0.0124,0.0128,0.0169,0.0226,0.024,0.0088,0.0088,0.0088,0,0,0.016,0.0171,0.0177,0.0195,0.0202,0.0217,0.0207,0.0217,0.0229,0.0182,0.0181,0.016,0.014,0.0137,0.0132,0.012,0.0167,0.0132,0.0135,0.0175,0.0231,0.0246,0.0259,0.009,0.0089,0.0089,0,0,0.0167,0.0176,0.019,0.0201,0.0215,0.0223,0.0225,0.0233,0.0236,0.0228,0.0208,0.0209,0.0171,0.0183,0.0178,0.0206,0.0193,0.0191,0.0252,0.0305,0.0319,0.0331,0.0316,0.0327,0.0191,0.0191,0.0191,0,0.0165,0.0188,0.0195,0.0212,0.0226,0.0226,0.0245,0.0252,0.0245,0.026,0.0231,0.0245,0.0213,0.0248,0.0251,0.0221,0.022,0.0223,0.0313,0.0326,0.0338,0.032,0.0332,0.0193,0.0193,0.0192,0.0192,0,0.0185,0.0203,0.0213,0.0239,0.0253,0.0269,0.0283,0.0295,0.0295,0.031,0.0343,0.0321,0.0341,0.0326,0.0284,0.0358,0.0315,0.0311,0.0298,0.0355,0.0331,0.0343,0.0195,0.0195,0.0194,0.0194,0,0,0.0185,0.022,0.0224,0.0246,0.0271,0.0289,0.0315,0.0353,0.0393,0.0396,0.0458,0.0447,0.0459,0.0459,0.043,0.0467,0.0511,0.0418,0.042,0.0404,0.0577,0.0526,0.0532,0.0514,0.0517,0.052,0.0505,0,0.0201,0.024,0.0254,0.0295,0.0319,0.0337,0.037,0.0404,0.0432,0.0487,0.0512,0.0546,0.0502,0.0511,0.0549,0.0527,0.0552,0.0513,0.0527,0.0527,0.0477,0.055,0.0537,0.0523,0.0517,0.0519,0.052,0,0.0219,0.0247,0.0288,0.0342,0.0355,0.0379,0.0452,0.0482,0.0556,0.0581,0.0646,0.0657,0.071,0.0668,0.0709,0.0677,0.0642,0.0624,0.0623,0.0591,0.0502,0.0478,0.0545,0.054,0.0538,0.0537,0.0535,0,0.0228,0.0274,0.0311,0.0327,0.0383,0.0412,0.0444,0.0514,0.0563,0.0652,0.0698,0.077,0.0796,0.0815,0.0756,0.0738,0.0786,0.0758,0.0683,0.0675,0.0682,0.067,0.0817,0.0817,0.0817,0.0817,0.0817,0,0.0246,0.0277,0.0318,0.0341,0.04,0.043,0.0509,0.0552,0.0639,0.0715,0.0752,0.0817,0.0839,0.0852,0.0807,0.0775,0.0828,0.0728,0.0699,0.0682,0.0671,0.0711,0.0699,0.0816,0.0816,0.0817,0.0817,0,0.0252,0.0277,0.0324,0.0382,0.0405,0.0447,0.0535,0.06,0.0664,0.0768,0.0797,0.0862,0.087,0.0857,0.086,0.0824,0.0804,0.0769,0.0708,0.0675,0.0637,0.0627,0.0721,0.072,0.0719,0.0718,0.0717,0,0.0259,0.0283,0.0348,0.0384,0.0411,0.0477,0.0534,0.0608,0.0679,0.0789,0.0841,0.0875,0.0897,0.0868,0.0823,0.0763,0.0756,0.0701,0.0699,0.0681,0.0643,0.0634,0.0625,0.0684,0.0683,0.0683,0.0682,0,0.0275,0.0295,0.0335,0.0403,0.046,0.0532,0.061,0.0668,0.0763,0.0831,0.0904,0.0925,0.0895,0.0845,0.0756,0.0716,0.072,0.0683,0.0731,0.0706,0.0645,0.0607,0.06,0.0675,0.0676,0.0676,0.0677,0.0677,0.0285,0.0312,0.0362,0.0428,0.0493,0.0574,0.0633,0.0712,0.0802,0.0901,0.0919,0.0928,0.0882,0.076,0.0693,0.0631,0.0657,0.0632,0.0636,0.064,0.0635,0.0575,0.0587,0.0587,0.0587,0.0587,0.0587,0,0.0299,0.0332,0.0388,0.0464,0.0528,0.0568,0.068,0.0737,0.0819,0.0886,0.0927,0.0846,0.0783,0.0714,0.0621,0.0573,0.0579,0.0542,0.0568,0.0575,0.0582,0.0575,0.051,0.0509,0.0509,0.0509,0,0,0.0308,0.0353,0.0379,0.0473,0.0531,0.0617,0.0677,0.0757,0.0815,0.0862,0.0861,0.087,0.0791,0.0696,0.063,0.0571,0.0583,0.0553,0.0623,0.067,0.0676,0.0643,0.0641,0,0,0,0,0]}],[{"header":{"parameterUnit":"m.s-1","parameterCategory":2,"la1":30.2991,"la2":30.254,"lo1":-89.0895,"lo2":-89.0444,"dy":0.0017,"dx":0.0017,"nx":28,"ny":28,"refTime":"2024-06-24T21:00:00:Z","depth":"4","parameterNumber":2,"parameterNumberName":"U-component_of_CURRENTS"},"data":[0,0,0,0,0,0,0,0,0,0,0,0,0,0,0,0,0,0,0,0,0,0,0,0,0,0,0,0,0,0,0,0,0,0,0,0,0,0,0,0,0,0,0,0,0,0,0,0,0,0,0,0,0,0,0,0,0,0,0.0636,0.0634,0,0.0452,0.045,0.0449,0.0391,0.0391,0.0392,0.0392,0.0166,0.016,0.0153,0,0,0,0,0,0,0,0,0,0,0,0,0,0.0808,0.0806,0.0636,0.0634,0.0631,0.0452,0.045,0.0448,0.0391,0.0391,0.0392,0.0392,0.0168,0.016,0.0153,0,0,0,0,0,0,0,0,0,0,0,0,0,0.0695,0.0806,0.0637,0.0577,0.057,0.0453,0.045,0.0448,0.0391,0.0391,0.0392,0.0393,0.017,0.0161,0.0152,0.0079,0,0,0.0122,0.0118,0,0,0,0,0,0,0,0,0.0701,0.0689,0.0589,0.0581,0.0572,0.0441,0.0427,0.032,0.039,0.0464,0.0392,0.0393,0.025,0.0234,0.0205,0.0068,0.0058,0.0121,0.0115,0.0111,0.0108,0,0,0,0,0,0,0,0.0709,0.0696,0.0568,0.0586,0.0576,0.0514,0.0501,0.0407,0.0359,0.0457,0.0452,0.0423,0.0246,0.0215,0.0199,0.0055,0.0121,0.0113,0.0107,0.0103,-0.0027,-0.0024,0,0,0,0,0,0,0.0728,0.0704,0.0574,0.0562,0.0634,0.0511,0.0496,0.0486,0.036,0.034,0.0423,0.0421,0.0231,0.0211,0.0191,0.0161,0.0111,0.0102,0.0097,-0.0029,-0.0026,-0.0024,0,0,0,0,0,0,0.0733,0.0719,0.0581,0.0624,0.0601,0.0508,0.0497,0.0482,0.0477,0.0333,0.0314,0.0436,0.0231,0.0205,0.0126,0.0149,0.0098,0.0089,-0.0032,-0.0028,-0.0025,0.0059,0,0,0,0,0,0,0.0739,0.0723,0.0735,0.0626,0.06,0.0525,0.0495,0.0478,0.0455,0.0452,0.0337,0.0316,0.0229,0.0141,0.0116,0.0135,0.0082,-0.0035,-0.003,-0.0026,0.0053,0.0065,0.0075,0,0,0,0,0,0.0746,0.0748,0.0738,0.0722,0.0617,0.0525,0.0507,0.0444,0.0456,0.0447,0.0378,0.0321,0.0154,0.0133,0.0104,0.0121,-0.0037,-0.0031,-0.0026,0.0048,0.0062,0.0074,0,0,0,0,0,0,0.0813,0.0738,0.0725,0.0702,0.063,0.0514,0.0494,0.0469,0.041,0.0412,0.0311,0.0283,0.0226,0.0174,0.0155,0.0108,0.0065,0.0064,0.0132,0.0144,0.0155,0.0197,0.0074,0,0,0,0,0,0.0839,0.0834,0.0738,0.0721,0.0691,0.061,0.0573,0.0529,0.0452,0.043,0.0355,0.029,0.0221,0.0185,0.0105,0.0059,0.0061,0.007,0.0081,0.009,0.0112,0.0199,0.022,-0.0006,-0.0006,-0.0006,0,0,0.0854,0.0816,0.081,0.0738,0.0681,0.062,0.0591,0.0536,0.049,0.0409,0.0349,0.0304,0.0217,0.0163,0.014,0.0124,0.0141,0.0097,0.0105,0.0122,0.0207,0.0229,0.0249,-0.0003,-0.0003,-0.0004,0,0,0.0865,0.0856,0.0848,0.079,0.0711,0.0649,0.0649,0.0554,0.0525,0.0451,0.0404,0.0397,0.0262,0.0235,0.0196,0.023,0.0188,0.0212,0.0296,0.0381,0.0401,0.0418,0.0382,0.0396,0.0228,0.0228,0.0229,0,0.089,0.086,0.0826,0.0785,0.0732,0.0674,0.0624,0.0573,0.0471,0.0468,0.0442,0.0367,0.0302,0.028,0.0301,0.0253,0.0261,0.0242,0.0396,0.0414,0.0431,0.039,0.0405,0.0233,0.0233,0.0232,0.0232,0,0.0868,0.0847,0.083,0.0769,0.0715,0.0661,0.0575,0.0557,0.0531,0.0496,0.0483,0.0422,0.0403,0.039,0.034,0.043,0.0378,0.039,0.0362,0.0459,0.0408,0.0422,0.024,0.0238,0.0237,0.0236,0,0,0.0898,0.0833,0.0827,0.0798,0.07,0.0649,0.0601,0.0548,0.0567,0.0513,0.054,0.0484,0.0525,0.0492,0.0467,0.0545,0.0645,0.0533,0.0536,0.0494,0.076,0.0618,0.0617,0.0702,0.0706,0.071,0.0653,0,0.0884,0.0833,0.0792,0.0724,0.0678,0.0625,0.0581,0.0544,0.0541,0.0559,0.056,0.0565,0.0535,0.0563,0.0636,0.0632,0.0696,0.0654,0.0677,0.0675,0.0538,0.0636,0.0724,0.0662,0.0665,0.0668,0.0669,0,0.0856,0.0827,0.0777,0.071,0.0688,0.065,0.0628,0.0583,0.0607,0.0623,0.0679,0.0677,0.073,0.0732,0.0794,0.077,0.0794,0.0799,0.0798,0.0657,0.0563,0.0564,0.0693,0.0691,0.0689,0.0688,0.0686,0,0.0875,0.0805,0.0779,0.0745,0.0669,0.0663,0.0628,0.0631,0.0619,0.0706,0.074,0.0796,0.0807,0.0883,0.0858,0.0863,0.0922,0.0922,0.0801,0.0785,0.0887,0.087,0.104,0.104,0.104,0.104,0.104,0,0.0849,0.0823,0.0801,0.0778,0.0754,0.0693,0.0702,0.0704,0.0724,0.0736,0.0795,0.0815,0.0871,0.0877,0.0895,0.0844,0.0948,0.0829,0.0798,0.091,0.0897,0.0891,0.0874,0.1038,0.1038,0.1039,0.1039,0,0.0847,0.0835,0.0806,0.077,0.0761,0.0748,0.071,0.0717,0.0754,0.0781,0.0808,0.0832,0.0837,0.0832,0.0901,0.0843,0.0849,0.0822,0.0859,0.0826,0.0635,0.0624,0.0684,0.068,0.0676,0.0672,0.067,0,0.0833,0.0826,0.0819,0.0811,0.0798,0.0778,0.0751,0.0745,0.0745,0.0773,0.0768,0.0788,0.0798,0.073,0.0762,0.0736,0.0746,0.0705,0.0765,0.0653,0.0617,0.0611,0.0606,0.0663,0.0662,0.0661,0.066,0,0.0805,0.0831,0.0819,0.0818,0.0804,0.0768,0.0736,0.0725,0.0711,0.0757,0.0732,0.0717,0.0686,0.0672,0.0633,0.0638,0.0712,0.0664,0.0673,0.073,0.0629,0.0595,0.0594,0.0647,0.0649,0.065,0.0651,0,0.0801,0.08,0.0812,0.0793,0.0788,0.074,0.0724,0.0677,0.066,0.0673,0.0664,0.0678,0.0694,0.0619,0.0602,0.056,0.0566,0.0548,0.0564,0.0579,0.0569,0.0426,0.0377,0,0,0,0,0,0.0778,0.0769,0.0765,0.0744,0.0744,0.0728,0.0692,0.0671,0.0664,0.0628,0.0639,0.062,0.0566,0.0562,0.0498,0.0535,0.0561,0.0453,0.055,0.0571,0.0586,0.0582,0,0,0,0,0,0,0.0762,0.077,0.0756,0.071,0.0686,0.066,0.0632,0.0621,0.0586,0.0598,0.0575,0.0581,0.0542,0.0621,0.05,0.049,0.0528,0.045,0.0446,0.0562,0.0576,0.0589,0.0589,0,0,0,0,0]},{"header":{"parameterUnit":"m.s-1","parameterCategory":2,"la1":30.2991,"la2":30.254,"lo1":-89.0895,"lo2":-89.0444,"dy":0.0017,"dx":0.0017,"nx":28,"ny":28,"refTime":"2024-06-24T21:00:00:Z","depth":"4","parameterNumber":3,"parameterNumberName":"V-component_of_CURRENTS"},"data":[0,0,0,0,0,0,0,0,0,0,0,0,0,0,0,0,0,0,0,0,0,0,0,0,0,0,0,0,0,0,0,0,0,0,0,0,0,0,0,0,0,0,0,0,0,0,0,0,0,0,0,0,0,0,0,0,0,0,0.0223,0.0223,0,0.0312,0.0314,0.0315,0.0358,0.0358,0.0357,0.0357,0.0474,0.0477,0.0481,0,0,0,0,0,0,0,0,0,0,0,0,0,0.0165,0.0166,0.0222,0.0223,0.0224,0.0312,0.0314,0.0315,0.0358,0.0358,0.0357,0.0357,0.0473,0.0477,0.0481,0,0,0,0,0,0,0,0,0,0,0,0,0,0.0219,0.0166,0.0222,0.0254,0.0257,0.0312,0.0314,0.0316,0.0358,0.0358,0.0357,0.0357,0.0472,0.0477,0.0482,0.0523,0,0,0.0497,0.05,0,0,0,0,0,0,0,0,0.0215,0.0221,0.0248,0.0252,0.0256,0.0321,0.0336,0.0385,0.0358,0.0323,0.0357,0.0357,0.0424,0.0433,0.0455,0.0529,0.0534,0.0498,0.0501,0.0503,0.0505,0,0,0,0,0,0,0,0.0212,0.0218,0.0261,0.0249,0.0254,0.029,0.0296,0.0346,0.0378,0.0326,0.0329,0.0334,0.0426,0.045,0.0458,0.0535,0.0498,0.0502,0.0505,0.0507,0.0627,0.0627,0,0,0,0,0,0,0.0191,0.0214,0.0258,0.0264,0.023,0.029,0.0298,0.0303,0.0377,0.0387,0.0334,0.0336,0.0441,0.0452,0.0462,0.0525,0.0503,0.0508,0.0511,0.0627,0.0627,0.0627,0,0,0,0,0,0,0.0189,0.0194,0.0255,0.0238,0.0248,0.0291,0.0297,0.0305,0.0331,0.0382,0.0393,0.0351,0.0441,0.0455,0.0519,0.053,0.051,0.0515,0.0627,0.0627,0.0627,0.0645,0,0,0,0,0,0,0.0187,0.0193,0.0197,0.0237,0.0248,0.0287,0.0297,0.0307,0.0333,0.0336,0.04,0.041,0.0442,0.0512,0.0524,0.0536,0.0519,0.0626,0.0627,0.0627,0.0645,0.0646,0.0648,0,0,0,0,0,0.0185,0.0191,0.0197,0.0203,0.025,0.0288,0.0298,0.0329,0.0334,0.035,0.0399,0.0409,0.052,0.0517,0.0532,0.0545,0.0626,0.0627,0.0627,0.0644,0.0646,0.0647,0,0,0,0,0,0,0.0172,0.0197,0.0204,0.0218,0.0249,0.0293,0.0312,0.033,0.0382,0.0386,0.0432,0.0447,0.0504,0.0519,0.0514,0.0575,0.0566,0.0569,0.0574,0.0576,0.0577,0.0571,0.0523,0,0,0,0,0,0.0168,0.0179,0.0209,0.0223,0.0235,0.0273,0.0294,0.0313,0.0358,0.038,0.0424,0.0466,0.0516,0.0542,0.0586,0.0632,0.0616,0.064,0.0641,0.0643,0.0645,0.0633,0.0634,0.0628,0.0628,0.0628,0,0,0.0166,0.0182,0.0189,0.0221,0.0247,0.0278,0.0286,0.0315,0.0351,0.0386,0.0449,0.0483,0.0531,0.0584,0.0607,0.0599,0.0632,0.0643,0.0644,0.0646,0.0633,0.0634,0.0634,0.0628,0.0628,0.0628,0,0,0.0171,0.0182,0.0194,0.022,0.0253,0.0282,0.0288,0.0332,0.0361,0.0424,0.0453,0.0489,0.0569,0.0598,0.0626,0.0658,0.0644,0.0663,0.0669,0.0657,0.0657,0.0658,0.0621,0.0618,0.0658,0.0658,0.0658,0,0.0169,0.0189,0.0206,0.0228,0.0257,0.0282,0.0313,0.035,0.0411,0.0438,0.0443,0.0538,0.0576,0.0634,0.0647,0.0663,0.0645,0.0664,0.0659,0.0659,0.0659,0.0621,0.0617,0.0659,0.0659,0.0659,0.0659,0,0.0187,0.0206,0.0217,0.0256,0.029,0.0319,0.0365,0.0397,0.0431,0.0466,0.0524,0.0568,0.0617,0.0628,0.0662,0.068,0.0662,0.0667,0.0656,0.0661,0.062,0.0616,0.0661,0.066,0.066,0.066,0,0,0.0178,0.022,0.0226,0.0252,0.0309,0.034,0.0394,0.0452,0.0487,0.0526,0.0568,0.0638,0.0639,0.0668,0.0688,0.068,0.0665,0.0677,0.0676,0.0641,0.062,0.0615,0.0609,0.0671,0.0671,0.0671,0.0585,0,0.0192,0.0232,0.0259,0.0316,0.0345,0.0388,0.0443,0.0495,0.0539,0.0581,0.0603,0.0654,0.0661,0.0682,0.0677,0.0682,0.0658,0.0687,0.062,0.0617,0.0613,0.0606,0.0671,0.0582,0.0581,0.058,0.058,0,0.0208,0.0235,0.0284,0.0351,0.0369,0.041,0.0492,0.0543,0.0599,0.063,0.0656,0.0675,0.069,0.0684,0.0661,0.068,0.0652,0.0635,0.0631,0.0619,0.0605,0.058,0.0572,0.0573,0.0573,0.0574,0.0574,0,0.0205,0.0259,0.0301,0.0324,0.0399,0.0434,0.0482,0.0554,0.06,0.065,0.0668,0.0688,0.069,0.0667,0.0647,0.0653,0.06,0.0599,0.0553,0.0551,0.0573,0.0574,0.0561,0.0561,0.0561,0.0561,0.0562,0,0.0218,0.0251,0.0298,0.0323,0.0385,0.0438,0.0508,0.0556,0.0613,0.0656,0.0684,0.0694,0.0687,0.0664,0.0638,0.0585,0.0587,0.055,0.0534,0.0579,0.0582,0.0568,0.057,0.0558,0.0559,0.056,0.056,0,0.0216,0.0243,0.0292,0.0359,0.0385,0.0431,0.0519,0.0564,0.0613,0.0659,0.0671,0.069,0.0664,0.0643,0.0597,0.0568,0.0524,0.05,0.0534,0.0522,0.0475,0.0479,0.0428,0.0427,0.0426,0.0426,0.0425,0,0.0219,0.024,0.0309,0.0341,0.0373,0.0441,0.0492,0.0563,0.0603,0.065,0.0661,0.0652,0.0658,0.0572,0.0559,0.0495,0.049,0.0451,0.0479,0.0474,0.0464,0.0469,0.0474,0.0424,0.0424,0.0424,0.0424,0,0.0227,0.0248,0.0288,0.0343,0.0396,0.0458,0.0522,0.0544,0.0616,0.0648,0.0645,0.0625,0.059,0.0553,0.0513,0.047,0.0475,0.0444,0.0444,0.0471,0.047,0.0461,0.0467,0.0421,0.0422,0.0422,0.0422,0,0.0231,0.0254,0.0297,0.0351,0.0409,0.0458,0.0498,0.0538,0.0579,0.0623,0.0611,0.0597,0.0593,0.0537,0.05,0.0467,0.0452,0.0428,0.043,0.0432,0.0476,0.0478,0.0414,0,0,0,0,0,0.0234,0.0257,0.0303,0.0361,0.0415,0.0449,0.0514,0.0548,0.0593,0.0588,0.0604,0.0577,0.053,0.0511,0.0473,0.0485,0.0447,0.0437,0.0421,0.0409,0.0411,0.0465,0,0,0,0,0,0,0.0235,0.0273,0.0296,0.0354,0.039,0.0452,0.0492,0.0526,0.0526,0.0558,0.0532,0.0545,0.0501,0.0544,0.0461,0.0455,0.0434,0.0427,0.0425,0.0407,0.041,0.0412,0.0468,0,0,0,0,0]}]]